Location: Unspecified
(43.3830°N, 0.0000°E)
Time: 07:56:43
(UTC+00:00)

N. Korean satellite - Pass Details

Date: 03 December 2020
Orbit: 453 x 502 km, 97.2° (Epoch: 16 January)

Event Time Altitude Azimuth Distance (km) Brightness Sun altitude
Rises 16:59:04 0° 180° (S) 2,456 10.5 -6.4°
Reaches altitude 10° 17:01:09 10° 187° (S) 1,592 9.6 -6.7°
Maximum altitude 17:04:26 45° 261° (W) 643 7.8 -7.3°
Drops below altitude 10° 17:07:47 10° 335° (NNW) 1,626 9.3 -7.8°
Sets 17:09:55 0° 342° (NNW) 2,515 10.1 -8.2°
